Location: Dötzum
(52.0808°N, 9.8063°E)
Time: 05:21:06
(UTC+00:00)

CZ-2D R/B - Pass Details

Date: 27 May 2022
Orbit: 791 x 845 km, 98.7° (Epoch: 26 June)

Event Time Altitude Azimuth Distance (km) Brightness Sun altitude
Rises 02:09:22 0° 11° (N) 3,388 6.5 -7.7°
Reaches altitude 10° 02:11:52 10° 3° (N) 2,442 5.5 -7.4°
Maximum altitude 02:16:49 38° 298° (WNW) 1,240 3.0 -6.9°
Drops below altitude 10° 02:21:39 10° 232° (SW) 2,395 3.9 -6.4°
Enters shadow 02:22:14 - 229° (SW) 2,604 4.1 -6.4°
